Estación de Vida Nueva

Ultimos registro cada 15 minutos 86
Estación Fecha / Hora Temperatura Humedad Lluvia Velocidad Dirección Radiación Presion
86 Vida Nueva 09-05-2026 21:15 2,1 5,8 0 0 168 0,6 994,6
85 Vida Nueva 09-05-2026 21:00 2 8,3 0 0 168 0,6 994,5
84 Vida Nueva 09-05-2026 20:45 2,4 9,3 0 0 168 0,6 994,6
83 Vida Nueva 09-05-2026 20:30 3,2 9,5 0 0 168 0,6 994,4
82 Vida Nueva 09-05-2026 20:15 3,5 12,9 0 0 168 0,6 994,7
81 Vida Nueva 09-05-2026 20:00 3,6 15,7 0 0 168 0,6 994,7
80 Vida Nueva 09-05-2026 19:45 3,8 18,6 0 0 168 0,6 994,5
79 Vida Nueva 09-05-2026 19:30 3,8 25,6 0 0 168 0,6 994,5
78 Vida Nueva 09-05-2026 19:15 4,7 28,2 0 0 168 0,6 994,2
77 Vida Nueva 09-05-2026 19:00 5,1 33,1 0 0 168 0,6 994,1
76 Vida Nueva 09-05-2026 18:45 5,8 36,5 0 0 168 0,6 994,2
75 Vida Nueva 09-05-2026 18:30 6,4 43,3 0 0 168 0,6 994,4
74 Vida Nueva 09-05-2026 18:15 7,1 50 0 0 168 0,6 994,3
73 Vida Nueva 09-05-2026 18:00 8,3 57,3 0 0 168 4,4 994,4
72 Vida Nueva 09-05-2026 17:45 10,3 60,6 0 0 168 10,6 994,6
71 Vida Nueva 09-05-2026 17:30 14,2 54,4 0 0 168 43,1 993,8
70 Vida Nueva 09-05-2026 17:15 16,5 48,8 0 0 168 86,9 993,4
69 Vida Nueva 09-05-2026 17:00 16,7 46,1 0 0 168 133,1 993,5
68 Vida Nueva 09-05-2026 16:45 15,6 44,6 0 0 168 173,1 993,4
67 Vida Nueva 09-05-2026 16:30 16,4 42,7 0 0 168 208,1 993,4
66 Vida Nueva 09-05-2026 16:15 17 40,9 0 0 168 205,6 993,9
65 Vida Nueva 09-05-2026 16:00 16,9 39,6 0 0 168 261,9 993,9
64 Vida Nueva 09-05-2026 15:45 17,3 39,8 0 0 170 296,9 993,5
63 Vida Nueva 09-05-2026 15:30 16,8 39,3 0 0 168 359,4 993,6
62 Vida Nueva 09-05-2026 15:15 17 39,8 0 0 174 404,4 993,8
61 Vida Nueva 09-05-2026 15:00 17 36 0 0 167 440,6 993,8
60 Vida Nueva 09-05-2026 14:45 16,3 35,7 0 0 157 445,6 993,9
59 Vida Nueva 09-05-2026 14:30 16,8 35,4 0 0 147 461,9 995,4
58 Vida Nueva 09-05-2026 14:15 16,6 34,1 0 0 163 481,9 994,4
57 Vida Nueva 09-05-2026 14:00 16,2 36 0 0 129 498,1 994,4
56 Vida Nueva 09-05-2026 13:45 15,7 40,1 0 0 171 520,6 994,5
55 Vida Nueva 09-05-2026 13:30 15 42,2 0 0 170 531,9 994,6
54 Vida Nueva 09-05-2026 13:15 14,9 42 0 0 136 554,4 994,8
53 Vida Nueva 09-05-2026 13:00 15,4 44,6 0 0 142 548,1 995,4
52 Vida Nueva 09-05-2026 12:45 15,1 45,5 0 0 66 550,6 995,6
51 Vida Nueva 09-05-2026 12:30 14,1 45,1 0 0,5 139 546,9 996
50 Vida Nueva 09-05-2026 12:15 13,8 46,8 0 0 143 543,1 996,3
49 Vida Nueva 09-05-2026 12:00 13,7 48,3 0 0 139 533,1 996,6
48 Vida Nueva 09-05-2026 11:45 12,7 48,9 0 0 159 521,9 996,9
47 Vida Nueva 09-05-2026 11:30 12,9 50,1 0 0 87 506,9 996,9
46 Vida Nueva 09-05-2026 11:15 12 50,1 0 0,5 125 488,1 997,2
45 Vida Nueva 09-05-2026 11:00 11,9 49 0 0 136 466,9 997,6
44 Vida Nueva 09-05-2026 10:45 11,3 49,7 0 0 157 443,1 997,7
43 Vida Nueva 09-05-2026 10:30 11,1 50,7 0 0,5 143 415,6 997,8
42 Vida Nueva 09-05-2026 10:15 11,2 52,4 0 0 122 386,9 997,7
41 Vida Nueva 09-05-2026 10:00 11,1 56,1 0 0 143 354,4 997,9
40 Vida Nueva 09-05-2026 09:45 10,1 57 0 0 140 319,4 997,9
39 Vida Nueva 09-05-2026 09:30 9,6 57,5 0 0 154 281,9 997,8
38 Vida Nueva 09-05-2026 09:15 9,2 59,2 0 0 159 243,1 997,9
37 Vida Nueva 09-05-2026 09:00 9 61,3 0 0 51 203,1 997,7
36 Vida Nueva 09-05-2026 08:45 8,1 61,8 0 0 101 163,1 997,5
35 Vida Nueva 09-05-2026 08:30 7,6 62,8 0 0 49 123,1 997,5
34 Vida Nueva 09-05-2026 08:15 7,4 62,8 0 0 128 71,9 997,8
33 Vida Nueva 09-05-2026 08:00 7,1 62,9 0 0 178 8,1 997,8
32 Vida Nueva 09-05-2026 07:45 6,9 63 0 0 102 4,4 997,7
31 Vida Nueva 09-05-2026 07:30 6,9 63,1 0 0 154 0,6 997,6
30 Vida Nueva 09-05-2026 07:15 6,6 62,8 0 0 60 0,6 997,8
29 Vida Nueva 09-05-2026 07:00 7,1 62,3 0 0 119 0,6 997,8
28 Vida Nueva 09-05-2026 06:45 6,9 63 0 0 132 0,6 997,9
27 Vida Nueva 09-05-2026 06:30 6,2 63,4 0 0 142 0,6 998,1
26 Vida Nueva 09-05-2026 06:15 6,3 63,2 0 0 149 0,6 998,1
25 Vida Nueva 09-05-2026 06:00 7 61,8 0 0 167 0,6 998
24 Vida Nueva 09-05-2026 05:45 7,4 60,7 0 0 146 0,6 998
23 Vida Nueva 09-05-2026 05:30 8,1 60 0 0 131 0,6 997,6
22 Vida Nueva 09-05-2026 05:15 7,9 61,4 0 0 139 0,6 997,6
21 Vida Nueva 09-05-2026 05:00 8,1 61,1 0 0 108 0,6 997,6
20 Vida Nueva 09-05-2026 04:45 8 60,6 0 0 143 0,6 997,7
19 Vida Nueva 09-05-2026 04:30 7,9 61,2 0 0 149 0,6 997,9
18 Vida Nueva 09-05-2026 04:15 7,8 61,9 0 0 164 0,6 998
17 Vida Nueva 09-05-2026 04:00 8 61,5 0 0 76 0,6 998
16 Vida Nueva 09-05-2026 03:45 7,4 62,7 0 0 29 0,6 997,9
15 Vida Nueva 09-05-2026 03:30 7,7 62,5 0 0 52 0,6 998,1
14 Vida Nueva 09-05-2026 03:15 7,7 62,7 0 0 84 0,6 998,1
13 Vida Nueva 09-05-2026 03:00 7,7 62,8 0 0 66 0,6 998,3
12 Vida Nueva 09-05-2026 02:45 7,4 62,7 0 0 56 0,6 998,4
11 Vida Nueva 09-05-2026 02:30 6,8 62,6 0 0 94 0,6 998,8
10 Vida Nueva 09-05-2026 02:15 5 60,8 0 0 100 0,6 998,8
9 Vida Nueva 09-05-2026 02:00 5,3 59,7 0 0 171 0,6 998,9
8 Vida Nueva 09-05-2026 01:45 5,1 61,5 0 0 180 0,6 998,9
7 Vida Nueva 09-05-2026 01:30 7 63,1 0 0 181 0,6 998,8
6 Vida Nueva 09-05-2026 01:15 8,2 60,2 0 0 117 0,6 998,9
5 Vida Nueva 09-05-2026 01:00 8,4 60 0 0 112 0,6 998,5
4 Vida Nueva 09-05-2026 00:45 8,3 60,6 0 0 72 0,6 998,6
3 Vida Nueva 09-05-2026 00:30 8,8 58,9 0 0 139 0,6 998,5
2 Vida Nueva 09-05-2026 00:15 8,7 60,6 0 0 142 0,6 998,5
1 Vida Nueva 09-05-2026 00:00 7,6 63 0 0 138 0,6 998,5